Fort Wayne, IN

8:28 AM EDT on October 16, 2019 (GMT -0400)
Fort Wayne International

Weather History for KFWA - August, 2019

Change the Weather History Date:

Saturday, August 24, 2019

  Actual Average Record
Temperature  
Mean Temperature 65 °F 71 °F  
Max Temperature 74 °F 82 °F 95 °F (1962)
Min Temperature 55 °F 60 °F 44 °F (1987)
Degree Days  
Heating Degree Days 0 0  
Month to date heating degree days 0 0  
Since 1 June heating degree days 18 32  
Since 1 July heating degree days 0 3  
Cooling Degree Days 0 6  
Month to date cooling degree days 180 170  
Year to date cooling degree days 821 676  
Since 1 June cooling degree days 753 619  
Growing Degree Days 14 (Base 50)    
Moisture  
Dew Point 53 °F    
Average Humidity 68    
Maximum Humidity 86    
Minimum Humidity 49    
Precipitation  
Precipitation 0.00 in 0.11 in 1.61 in (1999)
Month to date precipitation 2.88 2.85  
Year to date precipitation 26.80 26.05  
Sea Level Pressure  
Sea Level Pressure 30.24 in    
Wind  
Wind Speed 9 mph (ENE)    
Max Wind Speed 16 mph    
Max Gust Speed 24 mph    
Visibility 10 miles    
Events      
T = Trace of Precipitation, MM = Missing Value Source: NWS Daily Summary

Daily Weather History Graph

Daily Weather History Graph

Search for Another Location

Airport or City:

Astronomy

Aug. 24, 2019 Rise Set
Actual Time 6:59 AM EDT 8:26 PM EDT
Civil Twilight 6:30 AM EDT 8:54 PM EDT
Nautical Twilight 5:55 AM EDT 9:29 PM EDT
Astronomical Twilight 5:19 AM EDT 10:06 PM EDT
Moon 12:51 AM EDT (8/24) 3:42 PM EDT (8/24)
Length of Visible Light 14h 24m
Length of Day
13h 26m
Last Quarter, 39% of the Moon is Illuminated
Aug 24
Last Quarter
Aug 30
New
Sep 5
First Quarter
Sep 14
Full
Sep 21
Last Quarter

Hourly Weather History & Observations

Time (EDT) Temp. Dew Point Humidity Pressure Visibility Wind Dir Wind Speed Gust Speed Precip Events Conditions
12:54 AM 57.9 °F 54.0 °F 87% 30.23 in 10.0 mi Calm Calm - N/A   Partly Cloudy
1:54 AM 59.0 °F 53.1 °F 81% 30.23 in 10.0 mi NE 8.1 mph - N/A   Partly Cloudy
2:54 AM 59.0 °F 54.0 °F 83% 30.23 in 10.0 mi ENE 10.4 mph - N/A   Partly Cloudy
3:54 AM 57.0 °F 54.0 °F 89% 30.24 in 10.0 mi ENE 4.6 mph - N/A   Clear
4:54 AM 57.0 °F 51.1 °F 81% 30.26 in 10.0 mi ENE 5.8 mph - N/A   Partly Cloudy
5:54 AM 55.9 °F 51.1 °F 84% 30.27 in 10.0 mi ENE 4.6 mph - N/A   Scattered Clouds
6:54 AM 55.9 °F 50.0 °F 80% 30.27 in 10.0 mi NE 8.1 mph - N/A   Partly Cloudy
7:54 AM 57.0 °F 51.1 °F 81% 30.28 in 10.0 mi NE 9.2 mph - N/A   Partly Cloudy
8:54 AM 61.0 °F 53.1 °F 75% 30.29 in 10.0 mi ENE 10.4 mph - N/A   Partly Cloudy
9:54 AM 64.0 °F 53.1 °F 67% 30.29 in 10.0 mi NE 11.5 mph - N/A   Partly Cloudy
10:54 AM 66.9 °F 52.0 °F 59% 30.29 in 10.0 mi ENE 13.8 mph - N/A   Partly Cloudy
11:54 AM 68.0 °F 51.1 °F 55% 30.29 in 10.0 mi East 13.8 mph 21.9 mph N/A   Scattered Clouds
12:54 PM 70.0 °F 51.1 °F 51% 30.27 in 10.0 mi NE 13.8 mph - N/A   Scattered Clouds
1:54 PM 71.1 °F 53.1 °F 53% 30.25 in 10.0 mi NE 11.5 mph - N/A   Mostly Cloudy
2:54 PM 72.0 °F 54.0 °F 53% 30.25 in 10.0 mi East 9.2 mph - N/A   Mostly Cloudy
3:54 PM 72.0 °F 55.0 °F 55% 30.22 in 10.0 mi East 8.1 mph - N/A   Mostly Cloudy
4:54 PM 73.0 °F 53.1 °F 49% 30.21 in 10.0 mi East 8.1 mph 21.9 mph N/A   Scattered Clouds
5:54 PM 73.0 °F 54.0 °F 51% 30.21 in 10.0 mi East 12.7 mph - N/A   Scattered Clouds
6:54 PM 72.0 °F 54.0 °F 53% 30.20 in 10.0 mi ENE 12.7 mph - N/A   Partly Cloudy
7:54 PM 69.1 °F 54.0 °F 58% 30.20 in 10.0 mi ENE 10.4 mph - N/A   Partly Cloudy
8:54 PM 64.9 °F 54.0 °F 68% 30.20 in 10.0 mi ENE 10.4 mph - N/A   Partly Cloudy
9:54 PM 63.0 °F 53.1 °F 70% 30.22 in 10.0 mi ENE 10.4 mph - N/A   Partly Cloudy
10:54 PM 61.0 °F 52.0 °F 72% 30.23 in 10.0 mi East 6.9 mph - N/A   Partly Cloudy
11:54 PM 57.9 °F 51.1 °F 78% 30.23 in 10.0 mi ENE 6.9 mph - N/A   Partly Cloudy